W1SGB Weather Reports


Display with metric or nautical units.
time (UTC)temp
F
wind
direction
speed
MPH
gust
MPH
rain 1hr
in
rain 24hr
in
rain mn
in
humidity
%
barometer
mb
20260507084052 49 348 1.0 3.0 0.12 0.29 0.21 95 1007.4
20260507083018 50 339 1.0 3.0 0.10 0.26 0.18 95 1007.6
20260507082053 50 335 1.0 3.0 0.10 0.24 0.16 94 1007.5
20260507081018 50 346 2.0 2.0 0.11 0.22 0.14 94 1007.6
20260507080018 50 343 1.0 2.0 0.12 0.20 0.12 94 1007.7
20260507075018 50 7 1.0 3.0 0.10 0.18 0.10 94 1007.8
20260507074018 51 269 1.0 2.0 0.08 0.17 0.09 93 1008.2
20260507073020 51 314 1.0 2.0 0.08 0.16 0.08 92 1007.7
20260507072039 52 319 1.0 2.0 0.05 0.14 0.06 90 1008.0
20260507071019 52 356 2.0 4.0 0.02 0.11 0.03 87 1007.0
20260507070019 53 358 2.0 4.0 0.00 0.08 0.00 88 1006.6
20260507065019 53 322 1.0 2.0 0.00 0.08 0.00 92 1006.4
20260507064039 54 337 1.0 3.0 0.00 0.08 0.00 91 1006.7
20260507063020 54 315 1.0 3.0 0.00 0.08 0.00 91 1007.0
20260507062040 54 329 1.0 2.0 0.00 0.08 0.00 90 1006.9
20260507061020 54 339 2.0 3.0 0.00 0.08 0.00 90 1006.8
20260507060019 55 356 2.0 4.0 0.00 0.08 0.00 91 1006.9
20260507055019 55 304 1.0 2.0 0.00 0.08 0.00 91 1007.0
20260507054020 55 276 1.0 4.0 0.00 0.08 0.00 90 1007.1
20260507053020 56 317 2.0 5.0 0.00 0.08 0.00 92 1007.0
20260507052020 56 274 1.0 3.0 0.00 0.08 0.00 93 1007.3
20260507051021 56 303 1.0 3.0 0.00 0.08 0.00 93 1007.2
20260507050021 57 228 1.0 2.0 0.00 0.08 0.00 93 1007.1
20260507045021 57 292 1.0 4.0 0.00 0.08 0.00 92 1007.1
20260507044021 57 326 1.0 2.0 0.00 0.08 0.00 92 1007.1
20260507043022 57 291 1.0 2.0 0.00 0.08 0.00 91 1007.0
20260507042022 57 318 0.0 3.0 0.00 0.08 0.00 92 1007.1
20260507041021 58 292 1.0 3.0 0.00 0.08 0.00 93 1006.9
20260507040042 58 285 2.0 4.0 0.00 0.08 0.00 95 1007.0
20260507035022 58 273 1.0 4.0 0.00 0.08 0.00 95 1006.9
20260507034023 58 264 1.0 3.0 0.00 0.08 0.00 95 1006.9
20260507033023 58 295 1.0 3.0 0.00 0.08 0.00 95 1006.9
20260507032023 58 307 2.0 4.0 0.00 0.08 0.00 95 1007.0
20260507031023 58 226 1.0 3.0 0.00 0.08 0.00 95 1006.7
20260507030020 58 247 2.0 6.0 0.00 0.08 0.00 95 1006.7
20260507025023 58 233 2.0 4.0 0.00 0.08 0.00 95 1006.8
20260507024023 58 238 1.0 3.0 0.00 0.08 0.00 95 1006.7
20260507023023 58 243 2.0 4.0 0.00 0.08 0.00 95 1006.7
20260507022024 58 215 1.0 3.0 0.00 0.08 0.00 95 1006.7
20260507021021 58 347 1.0 5.0 0.00 0.08 0.00 95 1006.7
20260507020101 58 297 2.0 6.0 0.00 0.08 0.00 95 1006.8
20260507015024 58 271 1.0 3.0 0.00 0.08 0.00 95 1006.7
20260507014023 58 308 1.0 3.0 0.00 0.08 0.00 96 1006.7
20260507013024 57 249 2.0 3.0 0.00 0.08 0.00 96 1006.7
20260507012025 57 253 1.0 2.0 0.00 0.08 0.00 96 1006.7
20260507011025 57 236 1.0 4.0 0.00 0.08 0.00 96 1007.0
20260507010024 57 210 2.0 5.0 0.00 0.08 0.00 96 1007.1
20260507005022 57 347 2.0 5.0 0.00 0.08 0.00 96 1007.1
20260507004025 57 261 1.0 3.0 0.00 0.08 0.00 96 1007.1
20260507003024 57 250 1.0 3.0 0.00 0.08 0.00 96 1007.1
20260507002045 57 273 1.0 2.0 0.00 0.08 0.00 95 1007.1
20260507001046 57 322 1.0 2.0 0.00 0.08 0.00 95 1006.9
20260507000045 57 245 2.0 3.0 0.00 0.08 0.00 95 1006.9
20260506235101 57 236 2.0 3.0 0.00 0.08 0.08 95 1006.9
20260506234026 57 236 2.0 3.0 0.00 0.08 0.08 95 1006.8
20260506233026 57 244 2.0 3.0 0.00 0.08 0.08 95 1006.7
20260506232026 58 256 2.0 3.0 0.00 0.08 0.08 95 1006.7
20260506231026 58 234 1.0 2.0 0.00 0.08 0.08 94 1006.7
20260506230026 58 225 1.0 2.0 0.00 0.08 0.08 94 1006.7
20260506225047 58 309 1.0 3.0 0.00 0.08 0.08 94 1006.7
20260506224026 58 206 1.0 4.0 0.00 0.08 0.08 94 1006.7
20260506223107 58 255 2.0 5.0 0.00 0.08 0.08 95 1006.6
20260506222027 58 299 2.0 3.0 0.00 0.08 0.08 95 1006.6
20260506221048 58 346 2.0 4.0 0.00 0.08 0.08 95 1006.6
20260506220018 58 239 1.0 5.0 0.00 0.08 0.08 95 1006.8
20260506215019 59 231 2.0 5.0 0.00 0.08 0.08 95 1007.0
20260506214019 59 229 1.0 7.0 0.00 0.08 0.08 95 1007.0
20260506213016 59 229 1.0 3.0 0.00 0.08 0.08 94 1007.1
20260506212016 59 224 2.0 5.0 0.00 0.08 0.08 93 1007.2
20260506211020 59 214 2.0 4.0 0.00 0.08 0.08 93 1007.4
20260506210020 59 220 1.0 4.0 0.00 0.08 0.08 93 1007.5
20260506205017 59 210 2.0 6.0 0.00 0.08 0.08 93 1007.5
20260506204017 59 242 1.0 4.0 0.00 0.08 0.08 93 1007.5
20260506203018 59 210 2.0 6.0 0.01 0.08 0.08 93 1007.6
20260506202017 59 203 2.0 6.0 0.02 0.08 0.08 94 1007.6
20260506201100 59 234 1.0 3.0 0.03 0.08 0.08 94 1007.6
20260506200017 59 207 2.0 5.0 0.04 0.07 0.07 93 1007.9
20260506195038 59 205 2.0 4.0 0.05 0.07 0.07 93 1007.9
20260506194018 59 248 2.0 7.0 0.05 0.07 0.07 92 1007.9
20260506193018 59 215 2.0 5.0 0.06 0.07 0.07 91 1007.9
20260506192038 60 221 2.0 5.0 0.05 0.05 0.05 90 1008.0
20260506191018 60 199 1.0 4.0 0.04 0.04 0.04 88 1008.1
20260506190019 60 207 3.0 5.0 0.03 0.03 0.03 88 1008.2
20260506185018 61 251 1.0 5.0 0.03 0.03 0.03 86 1008.4
20260506184018 62 208 2.0 5.0 0.02 0.02 0.02 82 1008.5
20260506183019 63 224 2.0 6.0 0.01 0.01 0.01 77 1008.6
20260506182019 64 211 2.0 6.0 0.00 0.00 0.00 75 1008.7
20260506181016 65 219 2.0 5.0 0.00 0.00 0.00 71 1008.8
20260506180016 66 231 2.0 6.0 0.00 0.00 0.00 69 1008.8
20260506175016 67 275 2.0 7.0 0.00 0.00 0.00 68 1008.8
20260506174020 68 207 3.0 6.0 0.00 0.00 0.00 66 1008.9
20260506173020 69 221 3.0 6.0 0.00 0.00 0.00 65 1008.9
20260506172017 69 224 2.0 8.0 0.00 0.00 0.00 63 1009.0
20260506171018 69 211 3.0 8.0 0.00 0.00 0.00 63 1008.9
20260506170038 69 227 2.0 7.0 0.00 0.00 0.00 65 1009.0
20260506165017 70 218 3.0 9.0 0.00 0.00 0.00 64 1009.0
20260506164016 69 224 3.0 9.0 0.00 0.00 0.00 64 1009.1
20260506163036 69 205 2.0 6.0 0.00 0.00 0.00 64 1009.3
20260506162018 69 216 3.0 10.0 0.00 0.00 0.00 63 1009.5
20260506161018 69 111 2.0 7.0 0.00 0.00 0.00 64 1009.5
20260506160019 69 228 3.0 8.0 0.00 0.00 0.00 64 1009.7
20260506155017 70 247 3.0 6.0 0.00 0.00 0.00 62 1009.7
20260506154017 70 217 2.0 7.0 0.00 0.00 0.00 63 1009.9
20260506153017 70 221 3.0 8.0 0.00 0.00 0.00 62 1009.9
20260506152016 70 227 3.0 10.0 0.00 0.00 0.00 63 1010.0
20260506151017 69 225 3.0 6.0 0.00 0.00 0.00 65 1010.1
20260506150020 68 222 3.0 7.0 0.00 0.00 0.00 66 1010.2
20260506145018 67 193 2.0 4.0 0.00 0.00 0.00 67 1010.3
20260506144059 67 224 2.0 4.0 0.00 0.00 0.00 67 1010.3
20260506143018 67 197 1.0 3.0 0.00 0.00 0.00 67 1010.2
20260506142019 67 215 2.0 5.0 0.00 0.00 0.00 68 1010.2
20260506141018 67 201 2.0 4.0 0.00 0.00 0.00 68 1010.1
20260506140018 67 205 2.0 3.0 0.00 0.00 0.00 69 1010.2
20260506135019 66 230 2.0 6.0 0.00 0.00 0.00 69 1010.1
20260506134039 66 215 3.0 6.0 0.00 0.00 0.00 70 1010.1
20260506133100 65 241 1.0 4.0 0.00 0.00 0.00 72 1010.3
20260506132020 64 231 2.0 5.0 0.00 0.00 0.00 74 1010.6
20260506131019 64 209 2.0 5.0 0.00 0.00 0.00 75 1010.7
20260506130018 63 229 2.0 11.0 0.00 0.00 0.00 76 1010.7
20260506125019 63 202 3.0 5.0 0.00 0.00 0.00 77 1010.6
20260506124020 62 223 2.0 3.0 0.00 0.00 0.00 78 1010.6
20260506123020 62 220 2.0 4.0 0.00 0.00 0.00 79 1010.6
20260506122020 61 208 2.0 4.0 0.00 0.00 0.00 80 1010.6
20260506121021 61 220 2.0 3.0 0.00 0.00 0.00 80 1010.6
20260506120020 60 220 3.0 4.0 0.00 0.00 0.00 81 1010.6
20260506115021 60 218 2.0 5.0 0.00 0.00 0.00 82 1010.8
20260506114041 59 235 2.0 6.0 0.00 0.00 0.00 84 1010.9
20260506113016 59 220 2.0 4.0 0.00 0.00 0.00 84 1010.9
20260506112022 59 215 3.0 9.0 0.00 0.00 0.00 84 1011.0
20260506111017 59 244 2.0 6.0 0.00 0.00 0.00 84 1010.9
20260506110022 58 240 3.0 4.0 0.00 0.00 0.00 85 1010.8
20260506105041 58 212 2.0 3.0 0.00 0.00 0.00 85 1010.9
20260506104022 58 259 2.0 7.0 0.00 0.00 0.00 85 1010.8
20260506103022 58 238 2.0 4.0 0.00 0.00 0.00 85 1010.8
20260506102023 58 250 2.0 5.0 0.00 0.00 0.00 85 1010.7
20260506101042 58 233 2.0 4.0 0.00 0.00 0.00 85 1010.8
20260506100022 58 221 1.0 3.0 0.00 0.00 0.00 85 1010.7
20260506095022 58 203 2.0 4.0 0.00 0.00 0.00 85 1010.6
20260506094022 58 266 2.0 5.0 0.00 0.00 0.00 85 1010.6
20260506093023 58 258 2.0 3.0 0.00 0.00 0.00 84 1010.5
20260506092023 58 225 2.0 5.0 0.00 0.00 0.00 84 1010.7
20260506091023 58 218 2.0 4.0 0.00 0.00 0.00 84 1010.7
20260506090024 58 240 2.0 4.0 0.00 0.00 0.00 84 1010.7
20260506085024 58 121 2.0 4.0 0.00 0.00 0.00 83 1010.7